This is the latest recevied weather packets stored in our database for station/object EA7OC-10. If no packets are shown the sender has not sent any weather packets the latest 10 day(s).
| Time | Temp. | Humidity | Pressure | Rain* | Wind** | Luminosity | Snow |
|---|---|---|---|---|---|---|---|
| 1777874276 | 19.44° C | 35% | 1015.1 hPa | - | - | - | - |
| 1777873376 | 17.78° C | 33% | 1015 hPa | - | - | - | - |
| 1777872476 | 17.78° C | 33% | 1014.7 hPa | - | - | - | - |
| 1777871575 | 18.33° C | 33% | 1014.7 hPa | - | - | - | - |
| 1777870675 | 18.89° C | 33% | 1014.7 hPa | - | - | - | - |
| 1777869775 | 18.33° C | 33% | 1014.6 hPa | - | - | - | - |
| 1777868875 | 18.33° C | 33% | 1014.7 hPa | - | - | - | - |
| 1777867975 | 18.89° C | 33% | 1014.6 hPa | - | - | - | - |
| 1777867075 | 18.89° C | 33% | 1014.7 hPa | - | - | - | - |
| 1777847265 | 20.56° C | 32% | 1015.3 hPa | - | - | - | - |
| 1777843664 | 21.11° C | 31% | 1015 hPa | - | - | - | - |
| 1777842764 | 21.67° C | 31% | 1014.8 hPa | - | - | - | - |
| 1777841864 | 22.22° C | 30% | 1014.7 hPa | - | - | - | - |
| 1777840064 | 22.22° C | 30% | 1014.2 hPa | - | - | - | - |
| 1777839164 | 22.78° C | 30% | 1014.1 hPa | - | - | - | - |
| 1777832863 | 25.56° C | 29% | 1012.6 hPa | - | - | - | - |
| 1777831063 | 27.22° C | 29% | 1012.7 hPa | - | - | - | - |
| 1777830163 | 28.33° C | 28% | 1012.5 hPa | - | - | - | - |
| 1777825662 | 32.78° C | 30% | 1012.5 hPa | - | - | - | - |
| 1777822060 | 32.78° C | 31% | 1012.8 hPa | - | - | - | - |
| 1777821160 | 33.33° C | 32% | 1012.9 hPa | - | - | - | - |
| 1777814877 | 32.22° C | 34% | 1013.9 hPa | - | - | - | - |
| 1777811276 | 30.56° C | 34% | 1014.7 hPa | - | - | - | - |
| 1777810376 | 31.11° C | 34% | 1014.8 hPa | - | - | - | - |
| 1777807676 | 30° C | 35% | 1015.5 hPa | - | - | - | - |
* Rain since midnight (hover to see other rain measurements)
** Current wind speed in m/s (hover to see current wind gust speed)